パンスターズ彗星

P/2024 F1 ( PanSTARRS )

English version
Home page
Updated on May 15, 2024

---------------------------------------------------------------------

・ プロフィール

発見日 2024年3月18日
発見光度 20.7等
発見者 Pan-STARRS 1 telescope (Haleakala)

・ 軌道要素

Epoch 2024 Mar. 31.0 TT = JDT 2460400.5
T 2023 Oct. 25.62708 TT                                 Rudenko
q   1.8595568            (2000.0)            P               Q
n   0.15432883     Peri.  229.53333     -0.51080107     -0.85187955
a   3.4422151      Node   251.54358     +0.82105889     -0.44351546
e   0.4597790      Incl.    7.00524     +0.25484224     -0.27855929
P   6.39
>From 48 observations 2024 Mar. 18-Apr. 10, mean residual 0".3.

・ 光度変化

        m1 = 15.5 + 5 logΔ + 10.0 log r

---------------------------------------------------------------------

軌道要素はM.P.E.C. 2024-J304に掲載されたものです。
光度グラフはComet for Windowsで作成したものです。

---------------------------------------------------------------------

Copyright(C) Seiichi Yoshida (comet@aerith.net). All rights reserved.